Date String (YYYY-MM-DD hh:mm:ss) UTC,Instrument flags,Ambient pressure (hPa),Sample flow (lpm),Bypass flow (lpm),Sample temperature (°C),Ambient temperature (°C),ASC tube jacket temperature (°C),LED temperature (°C),Box temperature (°C),Sample RH (%),Span deviation,Mass concentration (μg/m³),Mass concentration (μg/m³),Mass concentration (μg/m³)
DateTimeUTC,F1_M11,P_M11,Q1_M11,Q2_M11,T1_M11,T2_M11,T3_M11,T4_M11,T5_M11,U1_M11,ZSPAN_M11,X2_M11,X0_M11,X1_M11
2022-08-18 03:00:00,,0831.3,5.01,0.00,29.6,27.5,00.0,38.3,31.3,20.5,0000.0,0004.48,0008.95,0004.09
2022-08-18 03:01:00,,0831.3,5.00,0.00,29.5,27.5,00.0,38.3,31.3,20.6,0000.0,0004.50,0008.84,0004.09
2022-08-18 03:02:00,,0831.3,5.00,0.00,29.5,27.6,00.0,38.2,31.3,20.6,0000.0,0004.50,0008.76,0004.09
2022-08-18 03:03:00,,0831.3,5.01,0.00,29.5,27.7,00.0,38.2,31.3,20.8,0000.0,0004.49,0009.39,0004.09
2022-08-18 03:04:00,,0831.3,5.00,0.00,29.5,27.9,00.0,38.2,31.4,20.7,0000.0,0004.48,0009.61,0004.09
2022-08-18 03:05:00,,0831.3,5.00,0.00,29.5,28.0,00.0,38.3,31.4,20.7,0000.0,0004.49,0010.10,0004.09
2022-08-18 03:06:00,,0831.3,5.00,0.00,29.5,28.2,00.0,38.3,31.4,20.7,0000.0,0004.49,0010.28,0004.09
2022-08-18 03:07:00,,0831.3,5.00,0.00,29.6,28.3,00.0,38.3,31.5,20.8,0000.0,0004.50,0010.62,0004.11
2022-08-18 03:08:00,,0831.3,5.00,0.00,29.6,28.4,00.0,38.3,31.5,20.8,0000.0,0004.49,0011.61,0004.11
2022-08-18 03:09:00,,0831.4,4.99,0.00,29.6,28.5,00.0,38.3,31.6,20.9,0000.0,0004.49,0011.21,0004.11
2022-08-18 03:10:00,,0831.4,5.00,0.00,29.7,28.6,00.0,38.3,31.6,20.8,0000.0,0004.49,0011.04,0004.11
2022-08-18 03:11:00,,0831.4,5.01,0.00,29.7,28.7,00.0,38.3,31.7,20.6,0000.0,0004.49,0010.76,0004.11
2022-08-18 03:12:00,,0831.4,4.99,0.00,29.7,28.7,00.0,38.4,31.7,20.5,0000.0,0004.50,0010.77,0004.12
2022-08-18 03:13:00,,0831.4,5.00,0.00,29.7,28.3,00.0,38.3,31.6,20.6,0000.0,0004.49,0010.73,0004.11
2022-08-18 03:14:00,,0831.4,4.99,0.00,29.7,27.7,00.0,38.3,31.4,20.5,0000.0,0004.50,0010.42,0004.11
2022-08-18 03:15:00,,0831.4,5.01,0.00,29.6,27.5,00.0,38.3,31.4,20.5,0000.0,0004.52,0009.82,0004.11
2022-08-18 03:16:00,,0831.4,4.99,0.00,29.5,27.5,00.0,38.3,31.3,20.5,0000.0,0004.51,0009.57,0004.12
2022-08-18 03:17:00,,0831.5,5.01,0.00,29.5,27.6,00.0,38.3,31.3,20.7,0000.0,0004.51,0009.12,0004.12
2022-08-18 03:18:00,,0831.5,4.99,0.00,29.5,27.7,00.0,38.3,31.3,20.6,0000.0,0004.51,0008.98,0004.12
2022-08-18 03:19:00,,0831.5,5.00,0.00,29.5,27.9,00.0,38.3,31.4,20.6,0000.0,0004.50,0007.85,0004.11
2022-08-18 03:20:00,,0831.5,5.00,0.00,29.5,28.0,00.0,38.3,31.4,20.7,0000.0,0004.49,0007.30,0004.11
2022-08-18 03:21:00,,0831.5,4.99,0.00,29.5,28.2,00.0,38.3,31.5,20.6,0000.0,0004.50,0007.33,0004.11
2022-08-18 03:22:00,,0831.5,5.00,0.00,29.6,28.3,00.0,38.3,31.5,20.8,0000.0,0004.53,0007.46,0004.11
2022-08-18 03:23:00,,0831.5,4.99,0.00,29.6,28.4,00.0,38.3,31.5,20.7,0000.0,0004.52,0007.42,0004.11
2022-08-18 03:24:00,,0831.5,5.01,0.00,29.6,28.5,00.0,38.3,31.6,20.6,0000.0,0004.50,0007.30,0004.11
2022-08-18 03:25:00,,0831.5,5.00,0.00,29.7,28.6,00.0,38.3,31.6,20.5,0000.0,0004.49,0007.31,0004.11
2022-08-18 03:26:00,,0831.5,5.01,0.00,29.7,28.7,00.0,38.4,31.7,20.6,0000.0,0004.47,0007.23,0004.10
2022-08-18 03:27:00,,0831.5,5.00,0.00,29.7,28.7,00.0,38.4,31.7,20.6,0000.0,0004.50,0007.36,0004.10
2022-08-18 03:28:00,,0831.5,5.01,0.00,29.7,28.2,00.0,38.3,31.5,20.5,0000.0,0004.54,0007.53,0004.10
2022-08-18 03:29:00,,0831.5,5.00,0.00,29.6,27.6,00.0,38.3,31.4,20.6,0000.0,0004.58,0007.63,0004.11
2022-08-18 03:30:00,,0831.5,4.99,0.00,29.6,27.5,00.0,38.3,31.3,20.6,0000.0,0004.61,0007.71,0004.11
2022-08-18 03:31:00,,0831.5,5.00,0.00,29.5,27.5,00.0,38.3,31.3,20.6,0000.0,0004.61,0008.21,0004.12
2022-08-18 03:32:00,,0831.5,4.99,0.00,29.5,27.6,00.0,38.3,31.3,20.6,0000.0,0004.63,0009.11,0004.12
2022-08-18 03:33:00,,0831.4,5.01,0.00,29.5,27.7,00.0,38.3,31.3,20.6,0000.0,0004.63,0009.05,0004.12
2022-08-18 03:34:00,,0831.5,5.00,0.00,29.5,27.9,00.0,38.3,31.4,20.6,0000.0,0004.61,0009.00,0004.12
2022-08-18 03:35:00,,0831.5,5.00,0.00,29.5,28.0,00.0,38.3,31.4,20.8,0000.0,0004.63,0008.97,0004.13
2022-08-18 03:36:00,,0831.5,5.00,0.00,29.5,28.1,00.0,38.3,31.4,20.7,0000.0,0004.62,0008.95,0004.13
2022-08-18 03:37:00,,0831.5,4.98,0.00,29.5,28.3,00.0,38.3,31.5,20.6,0000.0,0004.60,0008.98,0004.13
2022-08-18 03:38:00,,0831.5,5.00,0.00,29.6,28.4,00.0,38.3,31.5,20.6,0000.0,0004.57,0008.90,0004.14
2022-08-18 03:39:00,,0831.5,5.01,0.00,29.6,28.5,00.0,38.3,31.5,20.6,0000.0,0004.55,0008.95,0004.14
2022-08-18 03:40:00,,0831.4,5.00,0.00,29.6,28.5,00.0,38.3,31.6,20.6,0000.0,0004.53,0009.05,0004.15
2022-08-18 03:41:00,,0831.5,4.99,0.00,29.7,28.6,00.0,38.3,31.6,20.4,0000.0,0004.52,0009.33,0004.15
2022-08-18 03:42:00,,0831.5,5.01,0.00,29.7,28.7,00.0,38.4,31.7,20.4,0000.0,0004.53,0009.65,0004.15
2022-08-18 03:43:00,,0831.5,5.01,0.00,29.7,28.8,00.0,38.4,31.7,20.4,0000.0,0004.50,0008.88,0004.16
2022-08-18 03:44:00,,0831.5,4.99,0.00,29.7,28.6,00.0,38.4,31.7,20.4,0000.0,0004.50,0008.90,0004.15
2022-08-18 03:45:00,,0831.4,5.00,0.00,29.7,27.9,00.0,38.3,31.5,20.5,0000.0,0004.55,0009.03,0004.16
2022-08-18 03:46:00,,0831.4,5.00,0.00,29.6,27.6,00.0,38.3,31.4,20.7,0000.0,0004.54,0009.03,0004.16
2022-08-18 03:47:00,,0831.4,4.99,0.00,29.6,27.5,00.0,38.3,31.3,20.8,0000.0,0004.56,0008.96,0004.17
2022-08-18 03:48:00,,0831.5,5.02,0.00,29.5,27.6,00.0,38.3,31.3,20.9,0000.0,0004.59,0009.51,0004.18
2022-08-18 03:49:00,,0831.4,4.99,0.00,29.5,27.7,00.0,38.3,31.3,21.0,0000.0,0004.61,0010.10,0004.19
2022-08-18 03:50:00,,0831.5,5.00,0.00,29.5,27.8,00.0,38.3,31.4,20.9,0000.0,0004.61,0009.96,0004.20
2022-08-18 03:51:00,,0831.5,5.00,0.00,29.5,27.9,00.0,38.3,31.4,21.1,0000.0,0004.59,0009.78,0004.19
2022-08-18 03:52:00,,0831.4,5.00,0.00,29.5,28.1,00.0,38.3,31.4,21.0,0000.0,0004.62,0009.53,0004.19
2022-08-18 03:53:00,,0831.5,5.00,0.00,29.5,28.2,00.0,38.3,31.4,20.9,0000.0,0004.63,0009.17,0004.19
2022-08-18 03:54:00,,0831.5,5.00,0.00,29.6,28.3,00.0,38.3,31.5,20.9,0000.0,0004.66,0009.73,0004.20
2022-08-18 03:55:00,,0831.5,5.00,0.00,29.6,28.4,00.0,38.3,31.5,20.8,0000.0,0004.66,0009.71,0004.21
2022-08-18 03:56:00,,0831.4,5.00,0.00,29.6,28.5,00.0,38.3,31.6,20.6,0000.0,0004.64,0009.57,0004.22
2022-08-18 03:57:00,,0831.4,5.00,0.00,29.7,28.6,00.0,38.3,31.6,20.6,0000.0,0004.64,0009.59,0004.21
2022-08-18 03:58:00,,0831.4,5.00,0.00,29.7,28.6,00.0,38.4,31.6,20.6,0000.0,0004.65,0009.63,0004.21
2022-08-18 03:59:00,,0831.5,5.00,0.00,29.7,28.7,00.0,38.4,31.7,20.4,0000.0,0004.64,0009.07,0004.21
